TimeCDT,TemperatureF,Dew PointF,Humidity,Sea Level PressureIn,VisibilityMPH,Wind Direction,Wind SpeedMPH,Gust SpeedMPH,PrecipitationIn,Events,Conditions,WindDirDegrees,DateUTC
12:15 AM,69.8,62.6,78,29.79,10.0,South,12.7,-,N/A,,Clear,180,2012-10-24 05:15:00
12:35 AM,69.8,62.6,78,29.79,10.0,South,13.8,-,N/A,,Clear,190,2012-10-24 05:35:00
1:55 AM,71.6,64.4,78,29.81,10.0,South,13.8,-,N/A,,Mostly Cloudy,180,2012-10-24 06:55:00
2:15 AM,71.6,64.4,78,29.82,10.0,South,10.4,-,N/A,,Mostly Cloudy,190,2012-10-24 07:15:00
2:35 AM,69.8,64.4,83,29.82,10.0,South,11.5,-,N/A,,Scattered Clouds,180,2012-10-24 07:35:00
2:55 AM,71.6,64.4,78,29.82,10.0,South,12.7,-,N/A,,Mostly Cloudy,190,2012-10-24 07:55:00
3:35 AM,71.6,64.4,78,29.82,10.0,South,12.7,-,N/A,,Overcast,180,2012-10-24 08:35:00
3:55 AM,71.6,64.4,78,29.82,10.0,South,10.4,-,N/A,,Overcast,180,2012-10-24 08:55:00
4:15 AM,71.6,64.4,78,29.81,10.0,South,11.5,-,N/A,,Overcast,170,2012-10-24 09:15:00
4:35 AM,71.6,64.4,78,29.81,10.0,South,12.7,-,N/A,,Overcast,170,2012-10-24 09:35:00
4:55 AM,71.6,64.4,78,29.82,10.0,South,11.5,-,N/A,,Overcast,170,2012-10-24 09:55:00
5:15 AM,71.6,64.4,78,29.82,10.0,SSE,11.5,16.1,N/A,,Overcast,160,2012-10-24 10:15:00
5:35 AM,71.6,64.4,78,29.82,10.0,SSE,10.4,-,N/A,,Overcast,160,2012-10-24 10:35:00
5:55 AM,71.6,64.4,78,29.82,10.0,South,10.4,-,N/A,,Overcast,170,2012-10-24 10:55:00
6:15 AM,71.6,64.4,78,29.83,10.0,SSE,10.4,-,N/A,,Overcast,160,2012-10-24 11:15:00
6:35 AM,71.6,64.4,78,29.83,10.0,SSE,10.4,-,N/A,,Overcast,160,2012-10-24 11:35:00
6:55 AM,71.6,64.4,78,29.83,10.0,SSE,9.2,-,N/A,,Overcast,160,2012-10-24 11:55:00
7:15 AM,71.6,64.4,78,29.82,10.0,SSE,10.4,-,N/A,,Overcast,160,2012-10-24 12:15:00
7:35 AM,71.6,64.4,78,29.83,10.0,SSE,10.4,-,N/A,,Overcast,160,2012-10-24 12:35:00
7:55 AM,71.6,64.4,78,29.83,10.0,South,9.2,-,N/A,,Overcast,170,2012-10-24 12:55:00
8:15 AM,71.6,64.4,78,29.83,10.0,SSE,10.4,-,N/A,,Overcast,160,2012-10-24 13:15:00
8:35 AM,71.6,64.4,78,29.83,10.0,SSE,11.5,-,N/A,,Overcast,160,2012-10-24 13:35:00
8:55 AM,71.6,64.4,78,29.82,10.0,SSE,15.0,18.4,N/A,,Overcast,160,2012-10-24 13:55:00
9:15 AM,73.4,64.4,73,29.82,10.0,South,13.8,19.6,N/A,,Overcast,170,2012-10-24 14:15:00
9:35 AM,73.4,64.4,73,29.82,10.0,SSE,12.7,18.4,N/A,,Overcast,160,2012-10-24 14:35:00
9:55 AM,73.4,66.2,78,29.82,10.0,South,15.0,19.6,N/A,,Overcast,180,2012-10-24 14:55:00
10:15 AM,73.4,66.2,78,29.82,10.0,South,16.1,20.7,N/A,,Overcast,180,2012-10-24 15:15:00
10:35 AM,73.4,64.4,73,29.82,10.0,South,17.3,-,N/A,,Overcast,180,2012-10-24 15:35:00
10:55 AM,73.4,64.4,73,29.81,10.0,South,18.4,-,N/A,,Overcast,180,2012-10-24 15:55:00
11:15 AM,75.2,64.4,69,29.81,10.0,South,18.4,24.2,N/A,,Overcast,180,2012-10-24 16:15:00
11:35 AM,75.2,64.4,69,29.80,10.0,South,17.3,-,N/A,,Overcast,180,2012-10-24 16:35:00
11:55 AM,75.2,66.2,73,29.79,10.0,South,17.3,-,N/A,,Overcast,170,2012-10-24 16:55:00
12:15 PM,75.2,64.4,69,29.79,10.0,South,19.6,24.2,N/A,,Overcast,180,2012-10-24 17:15:00
12:35 PM,75.2,64.4,69,29.79,10.0,South,15.0,-,N/A,,Overcast,190,2012-10-24 17:35:00
12:55 PM,73.4,64.4,73,29.79,10.0,South,20.7,-,N/A,,Overcast,190,2012-10-24 17:55:00
1:15 PM,73.4,64.4,73,29.78,10.0,South,15.0,-,N/A,,Overcast,190,2012-10-24 18:15:00
1:35 PM,75.2,64.4,69,29.78,10.0,SSW,16.1,21.9,N/A,,Overcast,200,2012-10-24 18:35:00
1:55 PM,75.2,64.4,69,29.78,10.0,South,10.4,-,N/A,,Overcast,190,2012-10-24 18:55:00
2:15 PM,75.2,66.2,73,29.77,10.0,South,13.8,18.4,N/A,,Overcast,190,2012-10-24 19:15:00
2:35 PM,77.0,66.2,69,29.76,10.0,South,13.8,-,N/A,,Mostly Cloudy,180,2012-10-24 19:35:00
2:55 PM,78.8,66.2,65,29.74,10.0,South,15.0,-,N/A,,Mostly Cloudy,180,2012-10-24 19:55:00
3:15 PM,78.8,66.2,65,29.73,10.0,South,19.6,26.5,N/A,,Mostly Cloudy,180,2012-10-24 20:15:00
3:35 PM,80.6,66.2,61,29.73,10.0,South,17.3,20.7,N/A,,Mostly Cloudy,170,2012-10-24 20:35:00
3:55 PM,80.6,66.2,61,29.72,10.0,South,18.4,24.2,N/A,,Mostly Cloudy,170,2012-10-24 20:55:00
4:15 PM,80.6,66.2,61,29.72,10.0,South,18.4,26.5,N/A,,Scattered Clouds,180,2012-10-24 21:15:00
4:35 PM,82.4,66.2,58,29.72,10.0,South,19.6,25.3,N/A,,Scattered Clouds,170,2012-10-24 21:35:00
4:55 PM,80.6,66.2,61,29.71,10.0,South,19.6,24.2,N/A,,Scattered Clouds,180,2012-10-24 21:55:00
5:15 PM,80.6,66.2,61,29.72,10.0,South,17.3,23.0,N/A,,Scattered Clouds,180,2012-10-24 22:15:00
5:35 PM,78.8,66.2,65,29.71,10.0,South,13.8,-,N/A,,Scattered Clouds,170,2012-10-24 22:35:00
5:55 PM,78.8,66.2,65,29.71,10.0,South,15.0,20.7,N/A,,Clear,170,2012-10-24 22:55:00
6:15 PM,78.8,66.2,65,29.71,10.0,South,16.1,21.9,N/A,,Scattered Clouds,180,2012-10-24 23:15:00
6:35 PM,78.8,66.2,65,29.71,10.0,South,13.8,-,N/A,,Mostly Cloudy,170,2012-10-24 23:35:00
6:55 PM,78.8,66.2,65,29.72,10.0,South,11.5,-,N/A,,Scattered Clouds,170,2012-10-24 23:55:00
7:15 PM,78.8,66.2,65,29.72,10.0,South,15.0,19.6,N/A,,Mostly Cloudy,170,2012-10-25 00:15:00
7:55 PM,77.0,66.2,69,29.71,10.0,South,15.0,21.9,N/A,,Scattered Clouds,170,2012-10-25 00:55:00
8:15 PM,77.0,66.2,69,29.71,10.0,South,15.0,19.6,N/A,,Clear,170,2012-10-25 01:15:00
8:35 PM,75.2,66.2,73,29.71,10.0,South,15.0,-,N/A,,Clear,170,2012-10-25 01:35:00
8:55 PM,75.2,66.2,73,29.72,10.0,South,15.0,-,N/A,,Clear,180,2012-10-25 01:55:00
9:15 PM,75.2,66.2,73,29.70,10.0,South,18.4,25.3,N/A,,Clear,170,2012-10-25 02:15:00
9:35 PM,75.2,66.2,73,29.70,10.0,South,18.4,24.2,N/A,,Clear,170,2012-10-25 02:35:00
9:55 PM,75.2,66.2,73,29.71,10.0,South,16.1,21.9,N/A,,Clear,170,2012-10-25 02:55:00
10:15 PM,75.2,66.2,73,29.71,10.0,South,15.0,-,N/A,,Scattered Clouds,180,2012-10-25 03:15:00
10:35 PM,75.2,66.2,73,29.70,10.0,South,17.3,23.0,N/A,,Scattered Clouds,180,2012-10-25 03:35:00
10:55 PM,75.2,64.4,69,29.70,10.0,South,20.7,27.6,N/A,,Clear,190,2012-10-25 03:55:00
11:15 PM,75.2,64.4,69,29.71,10.0,South,16.1,-,N/A,,Mostly Cloudy,180,2012-10-25 04:15:00
11:35 PM,75.2,64.4,69,29.70,10.0,South,16.1,23.0,N/A,,Overcast,190,2012-10-25 04:35:00
11:55 PM,75.2,64.4,69,29.69,10.0,South,19.6,26.5,N/A,,Mostly Cloudy,190,2012-10-25 04:55:00